Weather History for Frenchville, ME

Change the Weather History Date:

Thursday, October 24, 2013

  Actual Average Record
Temperature  
Mean Temperature 34 °F 39 °F  
Max Temperature 38 °F 46 °F 63 °F (2001)
Min Temperature 30 °F 32 °F 19 °F (1997)
Degree Days  
Heating Degree Days 31    
Month to date heating degree days 391  
Since 1 July heating degree days 847  
Cooling Degree Days 0    
Month to date cooling degree days 0  
Year to date cooling degree days 139  
Moisture  
Dew Point 26 °F    
Average Humidity 73    
Maximum Humidity 89    
Minimum Humidity 52    
Precipitation  
Precipitation T in 0.08 in 0.09 in (2001)
Month to date precipitation 1.53 2.00  
Year to date precipitation 29.94 27.58  
Sea Level Pressure  
Sea Level Pressure 29.50 in    
Wind  
Wind Speed 13 mph (WSW)    
Max Wind Speed 25 mph    
Max Gust Speed 36 mph    
Visibility 9 miles    
Events Snow    
T = Trace of Precipitation, MM = Missing Value Source: NWS Daily Summary

Daily Weather History Graph

Daily Weather History Graph

Search for Another Location

Airport:

Trip Planner

Search our weather history database for the weather conditions in past years. The results will help you decide how hot, cold, wet, or windy it might be!

Date:

Astronomy

Oct. 24, 2013 Rise Set
Actual Time 7:04 AM EDT 5:29 PM EDT
Civil Twilight 6:33 AM EDT 6:00 PM EDT
Nautical Twilight 5:57 AM EDT 6:36 PM EDT
Astronomical Twilight 5:22 AM EDT 7:11 PM EDT
Moon 9:41 PM EDT (10/24) 12:12 PM EDT (10/24)
Length of Visible Light 11h 26m
Length of Day
10h 24m
Waning Gibbous, 71% of the Moon is Illuminated
Oct 24
Waning Gibbous
Oct 26
Last Quarter
Nov 3
New
Nov 10
First Quarter
Nov 17
Full

Hourly Weather History & Observations

Time (EDT) Temp. Windchill Dew Point Humidity Pressure Visibility Wind Dir Wind Speed Gust Speed Precip Events Conditions
12:53 AM 34.0 °F 27.2 °F 28.0 °F 79% 29.53 in 10.0 mi WSW 8.1 mph - N/A   Overcast
1:53 AM 34.0 °F 29.8 °F 28.0 °F 79% 29.52 in 10.0 mi West 4.6 mph - N/A   Overcast
2:53 AM 34.0 °F 28.0 °F 28.9 °F 82% 29.49 in 10.0 mi West 6.9 mph - N/A   Overcast
3:53 AM 33.1 °F 26.9 °F 28.0 °F 82% 29.49 in 10.0 mi WSW 6.9 mph - N/A   Overcast
4:53 AM 32.0 °F 26.4 °F 27.0 °F 82% 29.49 in 10.0 mi West 5.8 mph - N/A   Scattered Clouds
5:53 AM 30.9 °F 25.2 °F 26.1 °F 82% 29.49 in 10.0 mi WSW 5.8 mph - N/A   Clear
6:53 AM 30.9 °F 21.2 °F 23.0 °F 72% 29.49 in 10.0 mi West 12.7 mph - N/A   Mostly Cloudy
7:53 AM 30.9 °F 25.2 °F 23.0 °F 72% 29.50 in 10.0 mi SW 5.8 mph - N/A   Clear
8:53 AM 32.0 °F 26.4 °F 25.0 °F 75% 29.51 in 10.0 mi SW 5.8 mph - N/A   Mostly Cloudy
9:53 AM 35.1 °F 26.4 °F 25.0 °F 67% 29.50 in 10.0 mi SW 12.7 mph - N/A   Overcast
10:53 AM 35.1 °F 26.9 °F 21.0 °F 57% 29.51 in 10.0 mi WSW 11.5 mph 26.5 mph N/A   Overcast
11:53 AM 34.0 °F 24.2 °F 21.0 °F 59% 29.50 in 10.0 mi WSW 15.0 mph 23.0 mph N/A   Overcast
12:53 PM 37.0 °F 28.5 °F 21.9 °F 54% 29.48 in 10.0 mi SW 13.8 mph 25.3 mph N/A   Overcast
1:53 PM 37.0 °F 27.0 °F 21.0 °F 52% 29.46 in 10.0 mi WSW 18.4 mph 25.3 mph N/A   Overcast
2:53 PM 37.9 °F 28.5 °F 21.9 °F 53% 29.46 in 10.0 mi WSW 17.3 mph 25.3 mph N/A   Overcast
3:53 PM 37.9 °F 28.2 °F 21.9 °F 53% 29.47 in 10.0 mi WSW 18.4 mph 25.3 mph N/A   Overcast
4:53 PM 37.0 °F 27.7 °F 25.0 °F 62% 29.49 in 10.0 mi WSW 16.1 mph 24.2 mph N/A   Overcast
5:20 PM 35.6 °F 26.6 °F 28.4 °F 75% 29.48 in 3.0 mi West 13.8 mph 27.6 mph 0.00 in Snow Light Snow
5:29 PM 33.8 °F 24.3 °F 28.4 °F 81% 29.48 in 2.0 mi West 13.8 mph - 0.00 in Snow Light Snow
5:53 PM 33.1 °F 24.4 °F 30.0 °F 89% 29.51 in 2.5 mi WSW 11.5 mph - 0.00 in Snow Light Snow
6:02 PM 33.8 °F 23.9 °F 30.2 °F 87% 29.48 in 3.0 mi West 15.0 mph 20.7 mph 0.00 in Snow Light Snow
6:53 PM 35.1 °F 25.2 °F 28.9 °F 78% 29.51 in 10.0 mi WSW 16.1 mph 23.0 mph 0.00 in   Overcast
7:53 PM 35.1 °F 25.2 °F 28.9 °F 78% 29.52 in 10.0 mi West 16.1 mph 23.0 mph N/A   Overcast
8:36 PM 35.6 °F 25.9 °F 28.4 °F 75% 29.50 in 10.0 mi West 16.1 mph 24.2 mph N/A   Mostly Cloudy
8:53 PM 35.1 °F 25.5 °F 28.9 °F 78% 29.53 in 10.0 mi WSW 15.0 mph - N/A   Mostly Cloudy
9:53 PM 35.1 °F 26.4 °F 28.9 °F 78% 29.54 in 10.0 mi WSW 12.7 mph 23.0 mph N/A   Mostly Cloudy
10:18 PM 35.6 °F 26.6 °F 30.2 °F 81% 29.52 in 10.0 mi WSW 13.8 mph 23.0 mph N/A   Mostly Cloudy
10:53 PM 35.1 °F 26.4 °F 30.0 °F 82% 29.55 in 10.0 mi West 12.7 mph - N/A   Mostly Cloudy
11:53 PM 35.1 °F 26.4 °F 30.0 °F 82% 29.57 in 10.0 mi West 12.7 mph - N/A   Mostly Cloudy